SCP
0 0 0 0 0 0 0 0 0 0 0 0 0 0 0 0 0 0 0 0 0 0 0 0 0 0 0 0 0 0 0 0 0 0 0 0 0 0 0 0 -0 0 0 0 0 0 0 0 0 0 0 0 -0 0
0 0 0 0 0 0 0 0 0 0 0 0 0 0 0 0 0 0 0 0 0 0 0 0 0 0 0 0 0 0 0 0 0 0 0 0 0 0 0 0 0 0 0 0 0 0 0 0 0 0 0 0 0 0
0 0 0 0 0 0 0 0 0 0 0 0 0 0 0 0 0 0 0 0 0 0 0 0 0 0 0 0 0 0 0 0 0 0 0 0 0 0 0 0 0 0 0 0 0 0 0 0 0 0 0 0 0 -0
0 0 0 0 0 0 0 0 0 0 0 0 0 0 0 0 0 0 0 0 0 0 0 0 0 0 -0 0 0 0 0 0 0 0 0 0 0 0 0 0 -0 0 0 0 0 0 0 0 0 0 0 0 0 -0
0 0 0 0 0 0 0 0 0 0 0 0 0 0 0 0 0 0 0 0 0 0 0 0 0 -0 0 0 0 0 0 0 0 0 0 0 0 0 0 0 0 0 0 0 0 -0 0 0 0 0 0 0 -0 -0
0 0 0 0 0 0 0 0 0 0 0 0 0 0 0 0 0 0 0 0 0 0 0 0 0 0 -0 0 0 0 0 0 0 0 0 0 0 0 0 0 0 0 -0 -0 -0 0 0 0 0 0 0 0 -0 0
0 0 0 0 0 0 0 0 0 0 0 0 0 0 0 0 0 0 0 0 0 0 0 0 0 0 0 0 0 0 0 0 0 0 0 0 0 0 0 0 -0 -0 0 0 0 0 0 0 0 0 0 0 -0 -0
0 0 0 0 0 0 0 0 0 0 0 0 0 0 0 0 0 0 0 0 0 0 0 0 0 0 0 0 0 0 0 0 0 0 0 0 0 0 0 -0 -0 0 -0 0 0 0 0 0 0 -0 0 -0 -0 -0
0 0 0 0 0 0 0 0 0 0 0 0 0 0 0 0 0 0 0 0 0 0 0 0 0 0 -0 0 -0 0 0 0 0 0 0 0 0 0 -0 0 0 0 0 0 0 0 0 0 0 0 0 -0 -0 -0
0 0 0 0 0 0 0 0 0 0 0 0 0 0 0 0 0 0 0 0 0 0 0 0 0 0 0 0 0 0 0 0 0 0 0 0 0 0 -0 0 0 0 0 0 0 0 -0 0 -0 -0 0 -0 -0 -0
0 0 0 0 0 0 0 0 0 0 0 0 0 0 0 0 0 0 0 0 0 0 0 0 0 0 0 0 0 0 0 0 0 -0 0 0 0 0 0 -0 0 0 0 0 0 0 -0 -0 -0 -0 -0 -0 -0 0
0 0 0 0 0 0 0 0 0 0 0 0 0 0 0 0 0 0 0 0 0 0 -0 -0 0 0 0 0 0 0 0 -0 -0 -0 -0 -0 -0 0 0 0 0 0 0 0 0 0 -0 0 -0 -0 -0 0 0 -0
0 0 0 0 0 0 0 0 0 0 0 0 0 0 0 0 0 0 0 0 0 0 0 0 0 0 0 0 0 0 0 -0 0 0 0 0 0 -0 0 0 0 0 0 0 0 0 -0 0 -0 -0 -0 -0 -0 0
0 0 0 0 0 0 0 0 0 0 0 0 0 0 0 0 0 0 0 0 0 0 0 0 0 0 0 0 -0 0 -0 -0 0 -0 -0 0 -0 -0 -0 0 0 0 0 0 0 0 -0 0 0 -0 0 -0 0 0
0 0 0 0 0 0 0 0 0 0 0 0 0 0 0 0 0 0 0 0 0 0 0 0 0 0 0 0 -0 -0 -0 -0 -0 0 0 0 -0 -0 -0 -0 -0 0 0 0 0 0 -0 0 0 0 0 0 -0 0
0 0 0 0 0 0 0 0 0 0 0 0 0 0 0 0 0 0 0 0 0 0 0 0 -0 -0 -0 0 0 -0 0 0 0 0 0 0 -0 -0 -0 -0 -0 0 0 0 0 0 0 -0 0 -0 -0 -0 -0 -0
0 0 0 0 0 0 0 0 0 0 0 0 0 0 0 0 0 0 0 0 0 0 -0 0 -0 -0 0 0 0 0 0 0 0 0 0 -0 -0 -0 -0 -0 0 -0 0 0 0 0 0 -0 0 0 -0 -0 -0 -0
0 0 0 0 0 0 0 0 0 0 0 0 0 0 0 0 0 0 0 0 0 0 -0 -0 0 -0 0 0 0 0 0 -0 -0 -0 0 0 0 -0 -0 -0 -0 -0 0 0 0 0 0 0 -0 0 0 -0 -0 -0
0 0 0 0 0 0 0 0 0 0 0 0 0 0 0 0 0 0 0 -0 0 0 -0 -0 -0 -0 -0 -0 0 -0 -0 -0 -0 0 0 -0 0 0 -0 -0 -0 -0 -0 0 0 0 0 0 -0 -0 -0 0 -0 -0
0 0 0 0 0 0 0 0 0 0 0 0 0 0 0 0 0 -0 0 0 0 0 0 0 -0 -0 -0 -0 -0 -0 -0 -0 -0 0 0 0 0 0 0 0 -0 0 0 0 0 0 0 0 0 0 -0 0 -0 -0
0 0 0 0 0 0 0 0 0 0 0 0 0 -0 0 0 0 0 0 0 0 0 0 0 0 0 -0 -0 -0 -0 -0 -0 -0 -0 0 0 0 0 0 0 -0 0 0 -0 -0 0 0 0 0 0 -0 -0 -0 -0
0 0 0 0 0 0 0 0 0 0 0 0 -0 -0 -0 0 0 0 0 0 0 0 0 0 0 0 0 0 0 -0 -0 -0 -0 -0 -0 0 0 0 0 0 0 0 0 0 0 0 0 0 0 0 0 0 0 -0
0 0 0 0 0 0 0 0 0 0 0 0 0 0 0 0 0 0 0 0 0 0 0 0 0 0 -0 -0 -0 0 0 0 0 0 0 0 0 0 0 0 0 0 -0 0 0 0 0 0 0 0 0 -0 -0 -0
0 0 0 0 0 0 0 0 0 0 0 0 0 0 0 0 0 0 0 0 0 0 0 0 0 0 -0 -0 -0 -0 0 0 0 0 0 0 0 0 0 0 0 0 0 0 0 0 0 0 0 -0 -0 0 -0 -0
0 0 0 0 0 0 0 0 0 0 0 0 0 0 0 0 0 0 0 0 0 0 0 0 0 0 0 -0 -0 0 0 0 0 0 0 0 0 0 0 0 0 0 0 0 0 0 0 0 0 -0 -0 -0 -0 -0
0 0 0 0 0 0 0 0 0 0 0 0 0 0 0 0 0 0 0 0 0 0 0 0 0 0 0 0 -0 -0 -0 0 0 0 0 0 0 0 0 0 0 0 0 0 0 0 0 -0 0 -0 -0 -0 -0 -0
0 0 0 0 0 0 0 0 0 0 0 0 0 0 0 0 0 0 0 0 0 0 0 0 0 0 0 0 -0 -0 -0 -0 -0 0 0 0 0 0 0 0 0 0 0 0 0 0 0 0 0 0 0 -0 -0 -0
0 0 0 0 0 0 0 0 0 0 0 0 0 0 0 0 0 0 0 0 0 0 0 0 0 0 0 0 -0 -0 -0 -0 0 -0 -0 0 0 0 0 0 0 0 0 0 0 0 0 0 0 0 0 0 0 -0
0 0 0 0 0 0 0 0 0 0 0 0 0 0 0 0 0 0 0 0 0 0 0 0 0 0 0 0 -0 -0 -0 -0 0 -0 0 0 0 0 0 0 0 0 0 0 0 0 0 0 0 0 0 0 0 0
0 0 0 0 0 0 0 0 0 0 0 0 0 0 0 0 0 0 0 0 0 0 0 0 0 0 0 0 -0 0 -0 -0 -0 -0 0 0 0 0 0 0 0 0 0 0 0 0 0 0 0 0 0 0 0 0
0 0 0 0 0 0 0 0 0 0 0 0 0 0 0 0 0 0 0 0 0 0 0 0 0 0 0 0 -0 0 -0 -0 -0 -0 -0 -0 0 0 0 0 0 0 0 0 0 0 0 0 0 0 0 0 0 0
0 0 0 0 0 0 0 0 0 0 0 0 0 0 0 0 0 0 0 0 0 0 0 0 0 0 0 0 0 0 -0 -0 -0 -0 0 -0 -0 0 0 0 0 0 0 0 0 0 0 0 0 0 0 0 0 0
0 0 0 0 0 0 0 0 0 0 0 0 0 0 0 0 0 0 0 0 0 0 0 0 0 0 0 0 0 0 0 0 -0 -0 0 -0 -0 -0 -0 -0 0 0 0 0 0 0 0 0 0 0 0 0 0 0
Wind_Speed_500mb
37 38 38 38 43 42 39 43 44 46 47 47 46 45 43 43 37 33 26 16 20 37 67 67 57 46 37 34 5 12 18 9 9 5 5 5 6 6 8 10 13 4 8 8 7 6 13 16 4 6 16 37 40 18
37 37 38 39 39 43 38 41 46 47 48 48 47 47 45 42 38 27 33 16 30 34 48 76 90 79 81 76 59 24 11 11 8 5 7 7 8 6 11 7 12 7 8 6 10 10 8 11 27 56 57 55 35 33
39 36 38 39 40 40 38 39 44 49 51 50 48 47 45 42 36 30 39 36 28 45 61 34 39 29 26 36 29 22 22 21 16 20 7 5 8 7 4 8 12 9 23 9 19 4 3 33 48 29 8 22 40 49
40 38 37 38 40 40 41 38 43 50 52 53 51 48 45 41 40 43 50 41 21 22 15 21 29 37 51 38 39 50 39 18 27 21 7 4 6 10 6 12 24 25 22 16 23 34 15 17 20 16 24 38 42 44
41 40 36 39 40 40 43 41 43 48 51 51 51 50 47 46 45 48 47 31 21 27 12 39 73 5 34 23 41 46 54 49 32 8 5 7 8 8 8 10 17 8 8 7 6 43 21 26 21 15 26 32 45 53
42 41 37 39 40 40 43 42 48 51 50 49 48 48 47 45 42 36 5 10 9 29 16 9 30 36 11 10 33 44 49 45 27 9 7 10 21 9 7 8 20 26 40 30 24 40 38 23 26 32 39 45 48 47
42 41 37 39 37 39 44 42 50 51 50 47 44 45 46 38 30 13 8 5 7 11 10 14 13 18 35 21 29 36 45 26 25 8 11 10 17 11 6 15 41 46 33 10 47 30 14 19 12 36 57 44 38 41
43 41 38 36 35 38 43 43 50 50 47 44 39 38 34 24 10 9 10 16 21 13 10 6 9 17 14 10 5 9 10 14 13 10 7 8 10 13 9 25 37 30 31 25 34 23 19 20 43 59 44 45 46 42
43 41 36 34 32 38 42 43 47 46 45 40 31 33 21 1 3 8 21 19 9 14 8 7 5 7 14 12 10 7 14 6 9 6 6 7 7 11 20 30 6 37 17 18 24 23 29 31 38 41 46 52 51 44
43 40 35 31 31 38 39 43 42 43 40 32 18 7 4 3 15 23 8 4 5 5 8 6 16 11 33 35 8 10 6 4 5 10 12 8 7 32 55 52 42 21 10 27 23 22 28 28 30 37 43 48 47 41
43 39 32 29 30 33 37 37 37 39 34 19 12 9 13 19 6 9 10 10 12 7 10 14 18 10 17 10 7 10 6 6 5 5 7 7 4 9 16 5 5 10 22 26 22 23 27 29 30 36 41 39 49 40
42 36 31 27 29 30 32 30 31 27 24 25 19 17 14 6 6 8 5 3 1 1 10 8 14 16 14 11 5 9 6 5 8 0 6 2 9 39 23 13 18 20 19 24 25 23 25 27 28 33 37 37 51 44
41 36 29 26 28 28 26 24 22 23 18 5 4 4 5 5 2 5 4 4 3 3 10 29 14 7 7 7 10 5 6 7 30 5 4 9 46 64 60 6 15 23 17 23 28 23 24 28 28 28 36 35 50 49
38 33 28 27 25 23 20 15 17 12 3 6 11 6 6 3 5 6 10 11 4 16 24 33 30 9 7 0 3 5 6 7 8 5 10 17 50 87 66 13 23 19 16 24 30 23 27 32 31 32 34 33 48 49
38 34 29 26 17 16 11 9 7 3 2 8 8 4 6 19 27 29 31 31 34 35 37 34 33 16 7 4 3 5 5 3 7 5 8 49 56 66 66 22 34 20 14 23 27 22 24 35 35 30 33 34 44 54
38 32 27 15 12 10 8 8 8 5 5 7 9 7 17 16 19 27 28 25 36 35 35 22 10 7 4 7 2 11 11 9 7 7 41 60 73 65 66 39 35 21 10 16 19 17 21 35 47 37 37 41 46 51
35 28 17 9 10 7 6 17 7 7 8 6 12 15 26 15 20 23 21 26 27 31 5 8 14 8 4 6 6 8 6 9 30 43 51 56 63 61 53 49 45 22 10 13 13 11 17 25 41 46 43 46 53 56
32 24 15 12 13 15 15 10 6 8 12 18 15 18 11 12 17 21 24 27 22 22 16 6 3 9 10 7 7 11 36 46 48 52 56 59 60 64 58 66 43 11 10 10 14 20 21 22 28 32 38 34 42 50
32 21 17 16 23 17 10 9 9 8 23 18 15 6 8 8 18 20 21 23 20 19 7 12 10 5 5 8 27 38 40 44 48 60 56 52 54 56 51 58 39 18 13 14 9 14 15 18 23 18 25 34 39 35
31 25 16 19 28 11 7 7 10 9 8 0 7 12 8 9 12 17 25 29 22 13 15 8 6 11 17 36 38 40 44 41 55 60 60 60 55 57 57 49 50 16 5 10 13 22 28 23 21 23 25 25 30 38
29 24 20 23 22 9 6 6 14 11 7 6 13 7 5 20 14 20 22 21 23 11 8 8 18 24 26 29 32 38 37 41 43 45 53 69 70 51 50 42 55 36 30 11 9 21 10 18 20 15 21 28 35 38
24 24 22 22 9 11 8 11 8 5 3 13 17 20 11 17 13 13 18 14 9 10 9 16 24 26 32 33 37 35 40 43 47 47 49 52 55 55 45 43 51 50 43 13 10 14 24 28 19 15 28 34 34 35
32 26 14 12 9 13 12 10 10 12 9 9 13 10 9 8 12 15 8 9 9 11 12 18 22 21 25 32 34 38 42 53 54 57 60 56 45 34 34 44 41 40 45 30 11 12 37 31 20 33 31 26 29 32
29 13 10 13 17 9 11 16 9 2 4 8 5 6 7 12 16 6 6 8 7 8 16 18 21 24 21 27 40 49 59 55 58 57 52 47 39 36 32 31 29 30 38 11 18 16 37 25 37 29 22 38 34 34
8 11 8 10 17 11 11 16 17 10 11 15 11 3 8 14 6 3 7 9 6 9 12 12 17 23 26 27 38 50 59 55 56 56 50 38 36 32 34 30 24 20 31 13 30 20 17 35 35 30 35 39 39 39
8 13 13 20 11 12 13 13 16 10 9 11 9 7 9 5 5 5 6 8 4 7 10 12 20 26 23 26 37 46 54 55 52 56 43 44 31 35 49 41 36 25 27 12 10 16 6 33 32 31 36 41 42 38
8 13 17 18 19 23 9 16 22 17 9 10 7 9 5 6 6 7 15 7 5 3 11 12 14 19 22 27 30 38 47 55 46 46 36 41 34 43 47 42 37 32 25 16 12 25 18 21 23 39 39 45 44 39
15 12 21 31 23 26 10 10 10 12 10 11 18 7 7 4 5 9 10 9 5 4 7 10 13 16 17 25 29 38 46 55 52 46 38 48 53 52 44 40 32 26 24 15 15 19 15 32 28 43 50 50 46 40
15 21 26 21 9 5 5 9 10 13 9 18 9 6 8 10 16 20 15 10 8 8 7 10 15 16 16 23 27 35 41 52 64 70 70 68 74 68 54 47 41 38 33 24 17 23 19 32 32 38 57 54 53 53
15 27 12 25 13 8 13 21 10 25 21 24 26 37 36 30 22 16 15 12 11 9 8 9 12 17 22 26 29 32 34 41 55 54 56 58 62 64 58 52 47 42 40 29 21 21 34 30 54 52 54 64 63 64
14 33 17 18 18 22 25 27 30 30 32 36 33 44 37 27 21 18 16 11 8 6 7 10 13 16 21 28 30 34 36 38 50 49 46 49 55 61 61 54 52 48 40 30 22 23 21 42 62 46 62 72 71 73
23 22 23 9 12 24 31 35 27 25 31 36 27 32 31 22 11 8 3 10 7 8 7 8 11 16 19 20 23 25 26 34 44 47 46 49 52 56 58 57 54 53 46 31 26 17 23 35 58 53 64 72 74 71
32 33 32 20 16 25 22 17 11 17 19 21 22 30 14 11 10 10 8 6 7 7 7 7 10 12 15 18 20 24 23 23 32 36 36 42 46 49 53 55 54 54 49 38 33 17 8 18 51 45 49 56 58 58
Wind_Direction_500mb
288 297 304 312 317 320 326 331 334 336 336 336 336 334 333 331 332 324 326 248 277 278 282 281 281 275 295 297 273 332 339 20 308 295 276 321 320 329 324 308 305 245 192 202 222 235 267 174 108 198 241 301 291 249
282 291 299 306 314 316 323 329 330 333 333 332 332 331 331 329 329 323 313 285 269 283 258 279 287 281 271 268 259 260 251 334 284 304 12 330 321 299 323 282 315 310 162 217 198 233 238 309 250 254 273 276 303 298
278 286 294 303 308 312 317 324 328 331 332 330 330 330 329 327 324 313 303 313 323 294 301 279 287 322 297 286 244 224 236 229 233 248 282 287 271 4 297 275 294 298 310 291 309 255 252 274 276 299 296 314 313 307
275 282 289 296 302 307 312 321 324 329 331 330 328 328 327 322 314 310 305 306 271 284 284 283 301 286 282 276 231 222 235 213 246 260 258 248 279 291 285 283 289 273 296 315 274 286 291 294 339 292 309 318 317 310
270 276 284 292 298 303 310 319 321 324 326 328 326 325 324 321 319 313 319 306 239 235 295 307 310 348 299 297 207 217 225 227 237 236 195 247 250 288 283 267 257 232 204 257 288 291 265 286 281 312 316 316 316 306
266 272 280 287 295 301 305 319 323 323 324 325 323 321 320 319 318 328 350 66 243 233 278 310 301 310 355 255 209 214 225 225 229 201 238 235 245 236 255 259 269 284 314 332 318 287 300 342 339 333 330 336 330 323
262 268 277 283 290 297 304 322 324 322 324 324 322 318 317 318 307 262 259 313 28 214 280 299 282 285 316 199 194 205 219 212 215 230 221 233 241 254 256 263 268 282 292 308 289 311 337 9 2 335 336 325 327 335
258 262 270 280 287 297 308 323 322 322 325 324 320 314 319 320 345 344 337 318 259 275 262 282 280 290 333 231 231 198 153 197 219 232 221 222 228 214 258 255 293 324 306 312 332 18 66 356 350 353 359 354 345 345
254 259 268 273 285 301 308 324 320 323 326 326 314 312 301 350 273 308 301 295 249 232 292 251 284 297 327 333 330 204 205 220 219 220 215 214 200 230 244 272 326 291 263 313 25 22 13 4 1 358 356 360 354 353
249 254 262 267 290 300 316 319 323 326 327 331 344 348 159 67 344 320 326 177 203 232 239 286 298 281 307 296 286 333 205 247 256 225 181 217 248 269 274 275 289 289 355 22 34 23 14 13 2 0 358 353 353 357
244 250 254 265 289 303 314 319 327 326 334 1 341 304 294 309 295 247 220 200 174 214 207 243 247 271 295 281 269 250 267 201 254 175 215 223 133 273 315 47 108 25 48 38 36 29 20 19 6 360 4 1 6 11
240 244 244 267 290 305 317 323 322 329 337 319 301 299 352 336 255 286 274 294 340 329 220 252 306 271 293 288 316 302 280 315 252 323 252 291 21 343 316 113 73 57 53 43 43 46 49 32 18 17 11 9 10 14
234 235 243 272 291 310 314 320 316 322 336 317 336 282 231 260 339 261 311 241 284 18 307 308 293 260 303 355 298 316 280 281 328 277 278 33 4 338 326 169 89 66 48 55 50 31 28 27 30 25 25 17 24 30
227 229 246 272 289 304 308 307 305 319 328 248 223 281 230 120 278 258 331 358 277 320 333 328 315 267 173 152 220 268 307 306 316 306 40 336 346 342 335 49 98 67 44 57 60 33 22 27 31 28 21 33 39 44
220 230 249 267 283 289 285 285 305 305 118 270 270 232 253 354 337 348 354 352 347 351 346 319 300 252 167 253 198 307 286 25 62 334 294 323 349 348 11 37 15 66 50 59 65 47 28 28 30 46 31 52 56 53
219 235 252 248 257 249 249 195 129 61 277 261 241 280 290 329 348 355 354 346 342 334 327 303 274 294 32 338 249 12 348 37 328 283 318 343 355 1 354 350 328 356 57 58 54 57 21 42 41 55 58 65 72 68
220 228 222 197 210 198 172 151 147 220 260 247 243 250 271 2 346 327 336 341 350 337 337 20 347 16 302 14 40 16 356 297 304 333 339 339 338 346 355 358 337 342 113 58 51 58 56 54 54 58 66 69 73 76
213 208 179 191 179 148 134 155 205 221 240 238 256 269 25 335 325 7 13 349 356 344 2 11 317 360 27 6 349 349 339 335 341 338 335 337 343 352 351 352 352 14 72 96 87 88 85 60 51 66 70 74 74 72
191 188 175 184 168 156 190 206 223 255 222 255 247 333 326 346 36 13 1 352 340 337 339 40 54 29 351 328 319 321 329 330 334 334 331 334 341 346 356 355 5 316 349 112 114 85 82 63 72 78 82 73 77 73
181 168 166 170 169 166 201 202 195 259 270 288 258 261 303 100 68 52 41 29 33 48 46 51 44 355 326 323 331 333 333 343 342 333 332 333 339 343 354 357 356 345 262 71 109 123 120 109 101 98 98 93 93 85
169 192 190 175 187 204 260 203 203 237 269 273 284 286 264 126 103 69 71 50 52 42 68 33 2 333 334 330 334 334 340 346 339 329 326 323 327 340 338 348 355 10 353 244 236 166 124 103 118 121 118 112 106 101
161 158 152 162 180 204 250 237 255 349 215 247 271 258 244 125 125 116 91 61 68 53 43 9 350 346 339 346 348 346 337 335 331 329 333 334 333 335 348 359 347 350 357 335 248 180 142 153 149 123 120 111 112 113
148 160 149 185 209 205 250 208 204 211 213 199 236 244 166 114 122 136 103 101 95 54 32 4 3 7 357 354 351 350 348 343 345 346 346 341 343 355 2 349 335 337 349 339 269 180 166 167 145 135 140 144 128 117
145 163 195 196 197 218 202 195 222 242 251 209 247 237 141 127 147 143 93 99 89 44 15 18 14 356 357 2 3 360 358 355 354 353 1 357 358 354 346 333 333 3 4 351 180 160 168 162 154 162 152 141 140 138
164 205 194 224 197 218 204 204 181 208 202 207 216 205 148 172 134 111 116 117 71 20 9 24 7 5 2 358 355 360 5 2 359 353 1 4 10 4 357 358 357 359 7 61 170 171 170 169 167 166 152 159 158 155
207 212 202 197 206 199 204 189 185 182 216 207 189 171 122 76 85 130 91 119 100 31 31 23 2 360 1 359 355 358 355 5 8 4 12 17 13 9 359 355 350 352 11 28 73 188 238 184 181 178 172 172 169 171
226 223 208 223 207 206 202 179 175 183 214 190 180 169 126 137 143 104 141 119 125 48 19 5 354 352 350 359 357 358 360 12 19 12 17 15 19 14 12 3 350 336 338 359 254 257 276 200 198 191 186 183 183 184
236 238 216 213 224 203 179 177 180 189 208 207 150 126 125 87 85 125 153 139 96 68 18 11 12 4 359 5 0 354 358 7 18 22 27 25 22 15 16 12 1 330 301 298 287 260 214 213 221 194 194 191 187 191
230 219 215 201 142 113 156 193 211 210 190 161 132 89 92 87 129 129 125 141 118 81 46 24 20 18 14 9 8 2 2 2 10 14 15 7 7 10 14 11 3 357 336 292 253 239 224 221 208 195 197 199 189 186
239 216 216 184 146 169 185 203 226 110 105 116 108 106 98 109 106 119 116 108 96 69 42 34 24 20 18 12 9 8 11 358 5 9 5 4 -0 2 3 7 6 358 348 334 271 243 224 232 207 192 193 190 182 185
219 190 176 182 185 185 191 175 122 114 106 112 121 128 134 129 121 97 97 92 103 82 89 56 34 26 19 13 11 7 9 355 354 1 3 4 5 8 7 6 9 3 357 349 315 263 232 210 193 200 192 184 184 189
205 175 165 162 190 166 156 144 133 135 129 118 124 133 141 144 128 138 135 123 116 105 83 46 24 22 15 10 9 10 4 353 353 353 359 2 7 12 12 12 15 13 10 357 344 311 237 207 197 186 185 185 184 190
187 185 177 181 163 161 165 127 124 151 155 157 141 156 155 126 108 141 136 97 123 115 74 30 28 17 11 8 9 10 359 355 349 352 6 5 6 14 19 22 24 26 29 31 37 48 94 190 180 164 159 153 152 156
Wind_Speed_850mb
37 38 38 38 43 42 39 43 44 46 47 47 46 45 43 43 37 33 26 16 20 37 67 67 57 46 37 34 5 12 18 9 9 5 5 5 6 6 8 10 13 4 8 8 7 6 13 16 4 6 16 37 40 18
37 37 38 39 39 43 38 41 46 47 48 48 47 47 45 42 38 27 33 16 30 34 48 76 90 79 81 76 59 24 11 11 8 5 7 7 8 6 11 7 12 7 8 6 10 10 8 11 27 56 57 55 35 33
39 36 38 39 40 40 38 39 44 49 51 50 48 47 45 42 36 30 39 36 28 45 61 34 39 29 26 36 29 22 22 21 16 20 7 5 8 7 4 8 12 9 23 9 19 4 3 33 48 29 8 22 40 49
40 38 37 38 40 40 41 38 43 50 52 53 51 48 45 41 40 43 50 41 21 22 15 21 29 37 51 38 39 50 39 18 27 21 7 4 6 10 6 12 24 25 22 16 23 34 15 17 20 16 24 38 42 44
41 40 36 39 40 40 43 41 43 48 51 51 51 50 47 46 45 48 47 31 21 27 12 39 73 5 34 23 41 46 54 49 32 8 5 7 8 8 8 10 17 8 8 7 6 43 21 26 21 15 26 32 45 53
42 41 37 39 40 40 43 42 48 51 50 49 48 48 47 45 42 36 5 10 9 29 16 9 30 36 11 10 33 44 49 45 27 9 7 10 21 9 7 8 20 26 40 30 24 40 38 23 26 32 39 45 48 47
42 41 37 39 37 39 44 42 50 51 50 47 44 45 46 38 30 13 8 5 7 11 10 14 13 18 35 21 29 36 45 26 25 8 11 10 17 11 6 15 41 46 33 10 47 30 14 19 12 36 57 44 38 41
43 41 38 36 35 38 43 43 50 50 47 44 39 38 34 24 10 9 10 16 21 13 10 6 9 17 14 10 5 9 10 14 13 10 7 8 10 13 9 25 37 30 31 25 34 23 19 20 43 59 44 45 46 42
43 41 36 34 32 38 42 43 47 46 45 40 31 33 21 1 3 8 21 19 9 14 8 7 5 7 14 12 10 7 14 6 9 6 6 7 7 11 20 30 6 37 17 18 24 23 29 31 38 41 46 52 51 44
43 40 35 31 31 38 39 43 42 43 40 32 18 7 4 3 15 23 8 4 5 5 8 6 16 11 33 35 8 10 6 4 5 10 12 8 7 32 55 52 42 21 10 27 23 22 28 28 30 37 43 48 47 41
43 39 32 29 30 33 37 37 37 39 34 19 12 9 13 19 6 9 10 10 12 7 10 14 18 10 17 10 7 10 6 6 5 5 7 7 4 9 16 5 5 10 22 26 22 23 27 29 30 36 41 39 49 40
42 36 31 27 29 30 32 30 31 27 24 25 19 17 14 6 6 8 5 3 1 1 10 8 14 16 14 11 5 9 6 5 8 0 6 2 9 39 23 13 18 20 19 24 25 23 25 27 28 33 37 37 51 44
41 36 29 26 28 28 26 24 22 23 18 5 4 4 5 5 2 5 4 4 3 3 10 29 14 7 7 7 10 5 6 7 30 5 4 9 46 64 60 6 15 23 17 23 28 23 24 28 28 28 36 35 50 49
38 33 28 27 25 23 20 15 17 12 3 6 11 6 6 3 5 6 10 11 4 16 24 33 30 9 7 0 3 5 6 7 8 5 10 17 50 87 66 13 23 19 16 24 30 23 27 32 31 32 34 33 48 49
38 34 29 26 17 16 11 9 7 3 2 8 8 4 6 19 27 29 31 31 34 35 37 34 33 16 7 4 3 5 5 3 7 5 8 49 56 66 66 22 34 20 14 23 27 22 24 35 35 30 33 34 44 54
38 32 27 15 12 10 8 8 8 5 5 7 9 7 17 16 19 27 28 25 36 35 35 22 10 7 4 7 2 11 11 9 7 7 41 60 73 65 66 39 35 21 10 16 19 17 21 35 47 37 37 41 46 51
35 28 17 9 10 7 6 17 7 7 8 6 12 15 26 15 20 23 21 26 27 31 5 8 14 8 4 6 6 8 6 9 30 43 51 56 63 61 53 49 45 22 10 13 13 11 17 25 41 46 43 46 53 56
32 24 15 12 13 15 15 10 6 8 12 18 15 18 11 12 17 21 24 27 22 22 16 6 3 9 10 7 7 11 36 46 48 52 56 59 60 64 58 66 43 11 10 10 14 20 21 22 28 32 38 34 42 50
32 21 17 16 23 17 10 9 9 8 23 18 15 6 8 8 18 20 21 23 20 19 7 12 10 5 5 8 27 38 40 44 48 60 56 52 54 56 51 58 39 18 13 14 9 14 15 18 23 18 25 34 39 35
31 25 16 19 28 11 7 7 10 9 8 0 7 12 8 9 12 17 25 29 22 13 15 8 6 11 17 36 38 40 44 41 55 60 60 60 55 57 57 49 50 16 5 10 13 22 28 23 21 23 25 25 30 38
29 24 20 23 22 9 6 6 14 11 7 6 13 7 5 20 14 20 22 21 23 11 8 8 18 24 26 29 32 38 37 41 43 45 53 69 70 51 50 42 55 36 30 11 9 21 10 18 20 15 21 28 35 38
24 24 22 22 9 11 8 11 8 5 3 13 17 20 11 17 13 13 18 14 9 10 9 16 24 26 32 33 37 35 40 43 47 47 49 52 55 55 45 43 51 50 43 13 10 14 24 28 19 15 28 34 34 35
32 26 14 12 9 13 12 10 10 12 9 9 13 10 9 8 12 15 8 9 9 11 12 18 22 21 25 32 34 38 42 53 54 57 60 56 45 34 34 44 41 40 45 30 11 12 37 31 20 33 31 26 29 32
29 13 10 13 17 9 11 16 9 2 4 8 5 6 7 12 16 6 6 8 7 8 16 18 21 24 21 27 40 49 59 55 58 57 52 47 39 36 32 31 29 30 38 11 18 16 37 25 37 29 22 38 34 34
8 11 8 10 17 11 11 16 17 10 11 15 11 3 8 14 6 3 7 9 6 9 12 12 17 23 26 27 38 50 59 55 56 56 50 38 36 32 34 30 24 20 31 13 30 20 17 35 35 30 35 39 39 39
8 13 13 20 11 12 13 13 16 10 9 11 9 7 9 5 5 5 6 8 4 7 10 12 20 26 23 26 37 46 54 55 52 56 43 44 31 35 49 41 36 25 27 12 10 16 6 33 32 31 36 41 42 38
8 13 17 18 19 23 9 16 22 17 9 10 7 9 5 6 6 7 15 7 5 3 11 12 14 19 22 27 30 38 47 55 46 46 36 41 34 43 47 42 37 32 25 16 12 25 18 21 23 39 39 45 44 39
15 12 21 31 23 26 10 10 10 12 10 11 18 7 7 4 5 9 10 9 5 4 7 10 13 16 17 25 29 38 46 55 52 46 38 48 53 52 44 40 32 26 24 15 15 19 15 32 28 43 50 50 46 40
15 21 26 21 9 5 5 9 10 13 9 18 9 6 8 10 16 20 15 10 8 8 7 10 15 16 16 23 27 35 41 52 64 70 70 68 74 68 54 47 41 38 33 24 17 23 19 32 32 38 57 54 53 53
15 27 12 25 13 8 13 21 10 25 21 24 26 37 36 30 22 16 15 12 11 9 8 9 12 17 22 26 29 32 34 41 55 54 56 58 62 64 58 52 47 42 40 29 21 21 34 30 54 52 54 64 63 64
14 33 17 18 18 22 25 27 30 30 32 36 33 44 37 27 21 18 16 11 8 6 7 10 13 16 21 28 30 34 36 38 50 49 46 49 55 61 61 54 52 48 40 30 22 23 21 42 62 46 62 72 71 73
23 22 23 9 12 24 31 35 27 25 31 36 27 32 31 22 11 8 3 10 7 8 7 8 11 16 19 20 23 25 26 34 44 47 46 49 52 56 58 57 54 53 46 31 26 17 23 35 58 53 64 72 74 71
32 33 32 20 16 25 22 17 11 17 19 21 22 30 14 11 10 10 8 6 7 7 7 7 10 12 15 18 20 24 23 23 32 36 36 42 46 49 53 55 54 54 49 38 33 17 8 18 51 45 49 56 58 58
Wind_Direction_850mb
288 297 304 312 317 320 326 331 334 336 336 336 336 334 333 331 332 324 326 248 277 278 282 281 281 275 295 297 273 332 339 20 308 295 276 321 320 329 324 308 305 245 192 202 222 235 267 174 108 198 241 301 291 249
282 291 299 306 314 316 323 329 330 333 333 332 332 331 331 329 329 323 313 285 269 283 258 279 287 281 271 268 259 260 251 334 284 304 12 330 321 299 323 282 315 310 162 217 198 233 238 309 250 254 273 276 303 298
278 286 294 303 308 312 317 324 328 331 332 330 330 330 329 327 324 313 303 313 323 294 301 279 287 322 297 286 244 224 236 229 233 248 282 287 271 4 297 275 294 298 310 291 309 255 252 274 276 299 296 314 313 307
275 282 289 296 302 307 312 321 324 329 331 330 328 328 327 322 314 310 305 306 271 284 284 283 301 286 282 276 231 222 235 213 246 260 258 248 279 291 285 283 289 273 296 315 274 286 291 294 339 292 309 318 317 310
270 276 284 292 298 303 310 319 321 324 326 328 326 325 324 321 319 313 319 306 239 235 295 307 310 348 299 297 207 217 225 227 237 236 195 247 250 288 283 267 257 232 204 257 288 291 265 286 281 312 316 316 316 306
266 272 280 287 295 301 305 319 323 323 324 325 323 321 320 319 318 328 350 66 243 233 278 310 301 310 355 255 209 214 225 225 229 201 238 235 245 236 255 259 269 284 314 332 318 287 300 342 339 333 330 336 330 323
262 268 277 283 290 297 304 322 324 322 324 324 322 318 317 318 307 262 259 313 28 214 280 299 282 285 316 199 194 205 219 212 215 230 221 233 241 254 256 263 268 282 292 308 289 311 337 9 2 335 336 325 327 335
258 262 270 280 287 297 308 323 322 322 325 324 320 314 319 320 345 344 337 318 259 275 262 282 280 290 333 231 231 198 153 197 219 232 221 222 228 214 258 255 293 324 306 312 332 18 66 356 350 353 359 354 345 345
254 259 268 273 285 301 308 324 320 323 326 326 314 312 301 350 273 308 301 295 249 232 292 251 284 297 327 333 330 204 205 220 219 220 215 214 200 230 244 272 326 291 263 313 25 22 13 4 1 358 356 360 354 353
249 254 262 267 290 300 316 319 323 326 327 331 344 348 159 67 344 320 326 177 203 232 239 286 298 281 307 296 286 333 205 247 256 225 181 217 248 269 274 275 289 289 355 22 34 23 14 13 2 0 358 353 353 357
244 250 254 265 289 303 314 319 327 326 334 1 341 304 294 309 295 247 220 200 174 214 207 243 247 271 295 281 269 250 267 201 254 175 215 223 133 273 315 47 108 25 48 38 36 29 20 19 6 360 4 1 6 11
240 244 244 267 290 305 317 323 322 329 337 319 301 299 352 336 255 286 274 294 340 329 220 252 306 271 293 288 316 302 280 315 252 323 252 291 21 343 316 113 73 57 53 43 43 46 49 32 18 17 11 9 10 14
234 235 243 272 291 310 314 320 316 322 336 317 336 282 231 260 339 261 311 241 284 18 307 308 293 260 303 355 298 316 280 281 328 277 278 33 4 338 326 169 89 66 48 55 50 31 28 27 30 25 25 17 24 30
227 229 246 272 289 304 308 307 305 319 328 248 223 281 230 120 278 258 331 358 277 320 333 328 315 267 173 152 220 268 307 306 316 306 40 336 346 342 335 49 98 67 44 57 60 33 22 27 31 28 21 33 39 44
220 230 249 267 283 289 285 285 305 305 118 270 270 232 253 354 337 348 354 352 347 351 346 319 300 252 167 253 198 307 286 25 62 334 294 323 349 348 11 37 15 66 50 59 65 47 28 28 30 46 31 52 56 53
219 235 252 248 257 249 249 195 129 61 277 261 241 280 290 329 348 355 354 346 342 334 327 303 274 294 32 338 249 12 348 37 328 283 318 343 355 1 354 350 328 356 57 58 54 57 21 42 41 55 58 65 72 68
220 228 222 197 210 198 172 151 147 220 260 247 243 250 271 2 346 327 336 341 350 337 337 20 347 16 302 14 40 16 356 297 304 333 339 339 338 346 355 358 337 342 113 58 51 58 56 54 54 58 66 69 73 76
213 208 179 191 179 148 134 155 205 221 240 238 256 269 25 335 325 7 13 349 356 344 2 11 317 360 27 6 349 349 339 335 341 338 335 337 343 352 351 352 352 14 72 96 87 88 85 60 51 66 70 74 74 72
191 188 175 184 168 156 190 206 223 255 222 255 247 333 326 346 36 13 1 352 340 337 339 40 54 29 351 328 319 321 329 330 334 334 331 334 341 346 356 355 5 316 349 112 114 85 82 63 72 78 82 73 77 73
181 168 166 170 169 166 201 202 195 259 270 288 258 261 303 100 68 52 41 29 33 48 46 51 44 355 326 323 331 333 333 343 342 333 332 333 339 343 354 357 356 345 262 71 109 123 120 109 101 98 98 93 93 85
169 192 190 175 187 204 260 203 203 237 269 273 284 286 264 126 103 69 71 50 52 42 68 33 2 333 334 330 334 334 340 346 339 329 326 323 327 340 338 348 355 10 353 244 236 166 124 103 118 121 118 112 106 101
161 158 152 162 180 204 250 237 255 349 215 247 271 258 244 125 125 116 91 61 68 53 43 9 350 346 339 346 348 346 337 335 331 329 333 334 333 335 348 359 347 350 357 335 248 180 142 153 149 123 120 111 112 113
148 160 149 185 209 205 250 208 204 211 213 199 236 244 166 114 122 136 103 101 95 54 32 4 3 7 357 354 351 350 348 343 345 346 346 341 343 355 2 349 335 337 349 339 269 180 166 167 145 135 140 144 128 117
145 163 195 196 197 218 202 195 222 242 251 209 247 237 141 127 147 143 93 99 89 44 15 18 14 356 357 2 3 360 358 355 354 353 1 357 358 354 346 333 333 3 4 351 180 160 168 162 154 162 152 141 140 138
164 205 194 224 197 218 204 204 181 208 202 207 216 205 148 172 134 111 116 117 71 20 9 24 7 5 2 358 355 360 5 2 359 353 1 4 10 4 357 358 357 359 7 61 170 171 170 169 167 166 152 159 158 155
207 212 202 197 206 199 204 189 185 182 216 207 189 171 122 76 85 130 91 119 100 31 31 23 2 360 1 359 355 358 355 5 8 4 12 17 13 9 359 355 350 352 11 28 73 188 238 184 181 178 172 172 169 171
226 223 208 223 207 206 202 179 175 183 214 190 180 169 126 137 143 104 141 119 125 48 19 5 354 352 350 359 357 358 360 12 19 12 17 15 19 14 12 3 350 336 338 359 254 257 276 200 198 191 186 183 183 184
236 238 216 213 224 203 179 177 180 189 208 207 150 126 125 87 85 125 153 139 96 68 18 11 12 4 359 5 0 354 358 7 18 22 27 25 22 15 16 12 1 330 301 298 287 260 214 213 221 194 194 191 187 191
230 219 215 201 142 113 156 193 211 210 190 161 132 89 92 87 129 129 125 141 118 81 46 24 20 18 14 9 8 2 2 2 10 14 15 7 7 10 14 11 3 357 336 292 253 239 224 221 208 195 197 199 189 186
239 216 216 184 146 169 185 203 226 110 105 116 108 106 98 109 106 119 116 108 96 69 42 34 24 20 18 12 9 8 11 358 5 9 5 4 -0 2 3 7 6 358 348 334 271 243 224 232 207 192 193 190 182 185
219 190 176 182 185 185 191 175 122 114 106 112 121 128 134 129 121 97 97 92 103 82 89 56 34 26 19 13 11 7 9 355 354 1 3 4 5 8 7 6 9 3 357 349 315 263 232 210 193 200 192 184 184 189
205 175 165 162 190 166 156 144 133 135 129 118 124 133 141 144 128 138 135 123 116 105 83 46 24 22 15 10 9 10 4 353 353 353 359 2 7 12 12 12 15 13 10 357 344 311 237 207 197 186 185 185 184 190
187 185 177 181 163 161 165 127 124 151 155 157 141 156 155 126 108 141 136 97 123 115 74 30 28 17 11 8 9 10 359 355 349 352 6 5 6 14 19 22 24 26 29 31 37 48 94 190 180 164 159 153 152 156